17:26
Airports
History
Links
Donate
Help keep this website running!
PayPal
Bitcoin
This page is community maintained. The information is intended for PC simulator navigation or reference.
Always use approved charts for navigation.
RK50
G 526
G 526 (RK50)
Hongseong-gun, Chungcheongnam-do, Korea, Republic of (350)
4
Lat/Lng:36° 35' 1.7" N / 126° 39' 36.15" E
36.583806 / 126.660042
Elevation:197'ft / 60mMSL
ID / ICAO:RK50
Runways:1
Longest:03-21
Dirt 467m / 1,531ft
Nearby Weather16:56 GMT 2018-02-19
Nearby weather at RKSG, A 511 located 33.2 nautical miles from RK50
Altimeter: 30.23
Visibility: 3.0 statute miles
Wind: 0 knots (from 000°)
Temp: -4°c / 25°f
Humidity: 100.0%

METAR: RKSG 191656Z 00000KT 3SM BR CLR M04/M04 A3023 RMK AO2A SLP241 T10421042 PWINO $

(Powered by phpweather)
Nearby VORs <50NM
Nearby NDBs
Runway 03 / 21
Dimensions:466.7 x 15.2m 1531' x 50'ft
Surface:Dirt
Runway 03 [A]Runway 21 [B]
Heading:026°TH 206°TH
Lat:
Lng:
36° 34' 54.9"N
126° 39' 32"E
36° 35' 8.5"N
126° 39' 40.3"E
User Notes and Comments
36° 35' 1.7" N / 126° 39' 36.15" E
Distance To
Airport ID:
Nearby Airports
(C) SEOSAN AB 12.8 NM
RKTP NW 310°
4 G 530 21.8 NM
RK49 WNW 303°
(C) A 511 33.2 NM
RKSG ( WX ) NE 38°
(C) G 536 33.3 NM
RKUL SE 130°
(U) G 505 35.3 NM
RKUC E 91°
(C) OSAN AB 40.5 NM
RKSO ( WX ) NNE 30°
(U) G 500 40.9 NM
RK20 SE 142°
VFR Chart
Flight Planning at SkyVector.com